[[{"header":{"parameterUnit":"m.s-1","parameterCategory":1,"la1":30.2991,"la2":30.254,"lo1":-89.0895,"lo2":-89.0444,"dy":0.0017,"dx":0.0017,"nx":28,"ny":28,"refTime":"2024-07-08T03:00:00:Z","depth":0,"parameterNumber":2,"parameterNumberName":"U-component_of_WINDS"},"data":[0,0,0,0,0,0,0,0,0,0,0,0,0,0,0,0,0,0,0,0,0,0,0,0,0,0,0,0,0,0,0,0,0,0,0,0,0,0,0,0,0,0,0,0,0,0,0,0,0,0,0,0,0,0,0,0,0,0,-3.6783,-3.6783,0,-3.6772,-3.6772,-3.6772,-3.6738,-3.6738,-3.6737,-3.6736,-3.6726,-3.6726,-3.6726,0,0,0,0,0,0,0,0,0,0,0,0,0,-3.6777,-3.6777,-3.6783,-3.6783,-3.6783,-3.6772,-3.6772,-3.6772,-3.6739,-3.6738,-3.6737,-3.6736,-3.6725,-3.6726,-3.6726,0,0,0,0,0,0,0,0,0,0,0,0,0,-3.6774,-3.6777,-3.6783,-3.6765,-3.6763,-3.6772,-3.6772,-3.6772,-3.6739,-3.6738,-3.6737,-3.6736,-3.6725,-3.6726,-3.6726,-3.6752,0,0,-3.6728,-3.6728,0,0,0,0,0,0,0,0,-3.6774,-3.6774,-3.6768,-3.6766,-3.6764,-3.6755,-3.6766,-3.6765,-3.6739,-3.6748,-3.6736,-3.6735,-3.6736,-3.6736,-3.6736,-3.6751,-3.6751,-3.6728,-3.6729,-3.6729,-3.6729,0,0,0,0,0,0,0,-3.6774,-3.6775,-3.6779,-3.6768,-3.6766,-3.6758,-3.6756,-3.6765,-3.6749,-3.6747,-3.6745,-3.6744,-3.6735,-3.6736,-3.6736,-3.6751,-3.6728,-3.6729,-3.6729,-3.6729,-3.6786,-3.6787,0,0,0,0,0,0,-3.6777,-3.6775,-3.6779,-3.6778,-3.6767,-3.6759,-3.6757,-3.6759,-3.6748,-3.6746,-3.6745,-3.6742,-3.6735,-3.6735,-3.6735,-3.6763,-3.6729,-3.6729,-3.673,-3.6784,-3.6786,-3.6787,0,0,0,0,0,0,-3.6777,-3.6778,-3.6779,-3.6776,-3.6776,-3.676,-3.6763,-3.676,-3.676,-3.6746,-3.6743,-3.6748,-3.6734,-3.6734,-3.6748,-3.6762,-3.673,-3.673,-3.6783,-3.6785,-3.6786,-3.682,0,0,0,0,0,0,-3.6777,-3.6778,-3.6787,-3.6776,-3.6776,-3.6792,-3.6764,-3.676,-3.6761,-3.6758,-3.6749,-3.6746,-3.6734,-3.6747,-3.6748,-3.6763,-3.6731,-3.6782,-3.6784,-3.6786,-3.6818,-3.6823,-3.6827,0,0,0,0,0,-3.6777,-3.6797,-3.6788,-3.6788,-3.6787,-3.6793,-3.6792,-3.6777,-3.6763,-3.6772,-3.6763,-3.6747,-3.6761,-3.6749,-3.675,-3.6765,-3.6781,-3.6783,-3.6786,-3.6816,-3.6822,-3.6827,0,0,0,0,0,0,-3.681,-3.6796,-3.6785,-3.6802,-3.6799,-3.6787,-3.6798,-3.6784,-3.6785,-3.6782,-3.6763,-3.6762,-3.6777,-3.6773,-3.6759,-3.6789,-3.6768,-3.6771,-3.679,-3.6796,-3.6801,-3.6801,-3.6731,0,0,0,0,0,-3.682,-3.6826,-3.6813,-3.6829,-3.6828,-3.6814,-3.6816,-3.6804,-3.68,-3.6798,-3.6791,-3.6788,-3.6791,-3.6794,-3.6797,-3.6818,-3.6815,-3.6829,-3.6833,-3.6837,-3.6839,-3.6849,-3.6855,-3.6796,-3.6796,-3.6795,0,0,-3.6839,-3.6832,-3.6837,-3.6836,-3.6832,-3.6838,-3.6813,-3.6821,-3.6825,-3.68,-3.6811,-3.6806,-3.6801,-3.6818,-3.6825,-3.6815,-3.6856,-3.6841,-3.6844,-3.6844,-3.6852,-3.6858,-3.6863,-3.6797,-3.6797,-3.6797,0,0,-3.6878,-3.6873,-3.6886,-3.6883,-3.6877,-3.6867,-3.6871,-3.6861,-3.6856,-3.6868,-3.6849,-3.6854,-3.6861,-3.6858,-3.6858,-3.6896,-3.688,-3.6898,-3.6922,-3.6932,-3.6936,-3.694,-3.6952,-3.6957,-3.69,-3.69,-3.69,0,-3.6902,-3.6911,-3.6895,-3.6903,-3.6903,-3.6881,-3.6894,-3.6892,-3.6888,-3.6888,-3.6877,-3.6885,-3.688,-3.6895,-3.6905,-3.6906,-3.6908,-3.6897,-3.6937,-3.6941,-3.6944,-3.6955,-3.696,-3.6902,-3.6902,-3.6902,-3.6902,0,-3.6941,-3.6947,-3.6958,-3.6954,-3.6956,-3.6967,-3.6952,-3.6956,-3.6945,-3.6937,-3.6948,-3.6942,-3.6943,-3.6946,-3.6936,-3.696,-3.6954,-3.694,-3.6919,-3.6952,-3.6962,-3.6966,-3.6905,-3.6904,-3.6904,-3.6903,0,0,-3.6998,-3.6985,-3.699,-3.6987,-3.698,-3.6984,-3.6995,-3.6995,-3.6998,-3.6996,-3.7004,-3.7011,-3.6998,-3.6997,-3.6986,-3.6995,-3.7024,-3.698,-3.698,-3.6987,-3.7049,-3.7058,-3.7064,-3.7015,-3.7016,-3.7016,-3.7049,0,-3.7033,-3.7048,-3.7035,-3.7053,-3.7058,-3.7038,-3.7047,-3.7043,-3.7036,-3.7039,-3.7032,-3.7036,-3.702,-3.7019,-3.7027,-3.7019,-3.7036,-3.7017,-3.7021,-3.7021,-3.702,-3.7069,-3.7079,-3.711,-3.7053,-3.7054,-3.7054,0,-3.7075,-3.7074,-3.7093,-3.7084,-3.7086,-3.7094,-3.7093,-3.7097,-3.7093,-3.7087,-3.7087,-3.7073,-3.7083,-3.7064,-3.7076,-3.7063,-3.7064,-3.7061,-3.7062,-3.706,-3.7038,-3.7067,-3.7119,-3.7123,-3.7061,-3.706,-3.706,0,-3.7112,-3.7117,-3.7128,-3.7127,-3.7118,-3.7124,-3.712,-3.7115,-3.7116,-3.7116,-3.7116,-3.7117,-3.7117,-3.7119,-3.7106,-3.7094,-3.7119,-3.71,-3.7114,-3.7114,-3.7119,-3.7118,-3.717,-3.7123,-3.7123,-3.7123,-3.7123,0,-3.7151,-3.7163,-3.7145,-3.7152,-3.7165,-3.7149,-3.7163,-3.7157,-3.7153,-3.7158,-3.7141,-3.7147,-3.7131,-3.7135,-3.7125,-3.7136,-3.7137,-3.7132,-3.7129,-3.7132,-3.7133,-3.7131,-3.7128,-3.7124,-3.7124,-3.7124,-3.7123,0,-3.7195,-3.7183,-3.7194,-3.7184,-3.7182,-3.7192,-3.7183,-3.7189,-3.7182,-3.7189,-3.7189,-3.7177,-3.7181,-3.7169,-3.7171,-3.7165,-3.718,-3.7175,-3.7181,-3.7179,-3.7193,-3.7191,-3.7244,-3.725,-3.7201,-3.7201,-3.7202,0,-3.7219,-3.7228,-3.7219,-3.7221,-3.7218,-3.7222,-3.7223,-3.7209,-3.7211,-3.7207,-3.7213,-3.7216,-3.7216,-3.7223,-3.7215,-3.7216,-3.7209,-3.7228,-3.7209,-3.7212,-3.7207,-3.7206,-3.7206,-3.7231,-3.7232,-3.7232,-3.7233,0,-3.7264,-3.7258,-3.726,-3.7259,-3.7261,-3.726,-3.7259,-3.7262,-3.7246,-3.7249,-3.7253,-3.7253,-3.7255,-3.7257,-3.7257,-3.7253,-3.724,-3.7239,-3.7242,-3.7244,-3.7247,-3.7244,-3.7189,-3.7237,-3.7237,-3.7236,-3.7236,-3.7236,-3.7297,-3.7304,-3.7298,-3.7301,-3.7298,-3.7297,-3.7301,-3.7294,-3.7297,-3.7297,-3.7289,-3.7294,-3.7289,-3.7287,-3.7285,-3.7288,-3.728,-3.7285,-3.7286,-3.7286,-3.7288,-3.7248,-3.7289,-3.7288,-3.7288,-3.7288,-3.7288,0,-3.734,-3.7335,-3.7338,-3.7335,-3.7337,-3.7326,-3.7323,-3.7325,-3.733,-3.7327,-3.7328,-3.7332,-3.7334,-3.7326,-3.7327,-3.7331,-3.7325,-3.7332,-3.733,-3.7329,-3.7297,-3.7293,-3.7336,-3.7336,-3.7336,-3.7336,-3.7336,-3.7336,-3.7362,-3.7371,-3.7365,-3.7373,-3.7368,-3.7373,-3.7372,-3.7371,-3.7368,-3.7373,-3.7374,-3.7369,-3.7364,-3.7364,-3.7366,-3.7363,-3.7363,-3.7372,-3.7367,-3.7336,-3.7332,-3.7327,-3.7323,-3.7373,-3.7373,-3.7399,-3.7399,-3.74]},{"header":{"parameterUnit":"m.s-1","parameterCategory":1,"la1":30.2991,"la2":30.254,"lo1":-89.0895,"lo2":-89.0444,"dy":0.0017,"dx":0.0017,"nx":28,"ny":28,"refTime":"2024-07-08T03:00:00:Z","depth":0,"parameterNumber":3,"parameterNumberName":"V-component_of_WINDS"},"data":[0,0,0,0,0,0,0,0,0,0,0,0,0,0,0,0,0,0,0,0,0,0,0,0,0,0,0,0,0,0,0,0,0,0,0,0,0,0,0,0,0,0,0,0,0,0,0,0,0,0,0,0,0,0,0,0,0,0,4.5911,4.5911,0,4.5937,4.5938,4.5938,4.5905,4.5904,4.5903,4.5902,4.5926,4.5928,4.5929,0,0,0,0,0,0,0,0,0,0,0,0,0,4.583,4.5832,4.5911,4.5911,4.5912,4.5937,4.5938,4.5938,4.5906,4.5904,4.5903,4.5901,4.5925,4.5928,4.593,0,0,0,0,0,0,0,0,0,0,0,0,0,4.5861,4.5832,4.5911,4.5899,4.5898,4.5937,4.5938,4.5938,4.5906,4.5904,4.5902,4.5901,4.5925,4.5927,4.593,4.5982,0,0,4.5938,4.5939,0,0,0,0,0,0,0,0,4.586,4.5864,4.59,4.59,4.5899,4.5916,4.5918,4.5953,4.5906,4.5903,4.5902,4.59,4.5924,4.5927,4.5935,4.5983,4.5984,4.5938,4.594,4.5941,4.5942,0,0,0,0,0,0,0,4.5858,4.5863,4.5921,4.5901,4.59,4.5891,4.5893,4.5924,4.5923,4.5903,4.5901,4.5904,4.5923,4.5933,4.5936,4.5984,4.5938,4.594,4.5942,4.5943,4.6075,4.6077,0,0,0,0,0,0,4.5857,4.5862,4.592,4.5922,4.5875,4.5894,4.5897,4.5912,4.5923,4.5922,4.5906,4.5903,4.5929,4.5933,4.5936,4.5998,4.5941,4.5943,4.5945,4.6073,4.6075,4.6077,0,0,0,0,0,0,4.5856,4.5863,4.5919,4.5891,4.5898,4.5897,4.5915,4.5914,4.5924,4.5925,4.5924,4.5916,4.5928,4.5933,4.5971,4.5998,4.5944,4.5947,4.6071,4.6074,4.6076,4.6121,0,0,0,0,0,0,4.5853,4.5862,4.5883,4.5892,4.5899,4.5954,4.5917,4.5916,4.5928,4.5925,4.5934,4.5934,4.5927,4.5967,4.5973,4.6001,4.5949,4.6068,4.6072,4.6076,4.6117,4.6125,4.6132,0,0,0,0,0,4.5851,4.5894,4.5884,4.5891,4.5925,4.5956,4.596,4.5952,4.5931,4.5951,4.5952,4.5934,4.5994,4.5971,4.5978,4.6007,4.6067,4.6071,4.6075,4.6114,4.6124,4.6132,0,0,0,0,0,0,4.5887,4.5895,4.5884,4.5932,4.5944,4.5951,4.5976,4.5963,4.598,4.5976,4.5964,4.5966,4.6007,4.601,4.5985,4.6057,4.6027,4.6033,4.6054,4.6063,4.607,4.6069,4.5951,0,0,0,0,0,4.5901,4.5926,4.5931,4.5973,4.5979,4.5977,4.599,4.5982,4.5994,4.5998,4.6002,4.6013,4.6034,4.6049,4.6068,4.6117,4.6119,4.614,4.6148,4.6154,4.6159,4.6185,4.6195,4.6092,4.6092,4.6092,0,0,4.5929,4.5936,4.5953,4.598,4.5988,4.6014,4.5981,4.601,4.6029,4.6002,4.6039,4.6042,4.6053,4.6097,4.6117,4.6101,4.6188,4.6159,4.6164,4.6166,4.6191,4.62,4.6209,4.6095,4.6094,4.6094,0,0,4.5994,4.6002,4.6038,4.6047,4.606,4.6058,4.6067,4.6076,4.6077,4.6114,4.6095,4.6116,4.6153,4.6162,4.6172,4.624,4.6224,4.6246,4.6285,4.6311,4.6319,4.6326,4.6351,4.636,4.6252,4.6252,4.6252,0,4.6027,4.6067,4.6057,4.6088,4.61,4.6078,4.6114,4.6123,4.6141,4.615,4.6133,4.6179,4.6185,4.6231,4.6247,4.6256,4.6265,4.6246,4.6319,4.6326,4.6332,4.6356,4.6365,4.6254,4.6254,4.6254,4.6254,0,4.6107,4.6134,4.6161,4.6181,4.6196,4.6229,4.6224,4.624,4.6231,4.623,4.6268,4.6274,4.6295,4.6305,4.6296,4.635,4.634,4.6321,4.629,4.6345,4.6367,4.6376,4.6258,4.6257,4.6256,4.6256,0,0,4.6197,4.6211,4.6221,4.623,4.6243,4.6263,4.6294,4.6315,4.633,4.6343,4.6369,4.64,4.6383,4.6394,4.6385,4.6408,4.6462,4.6386,4.6386,4.6401,4.6521,4.6536,4.6546,4.6451,4.6453,4.6454,4.652,0,4.6262,4.6318,4.631,4.6363,4.6388,4.6367,4.6394,4.6405,4.6405,4.6425,4.6425,4.6448,4.6423,4.6429,4.6451,4.6451,4.6486,4.6446,4.6475,4.6476,4.6473,4.6558,4.6573,4.6636,4.6529,4.653,4.6531,0,4.6346,4.6364,4.642,4.6429,4.6439,4.6464,4.6483,4.6502,4.6513,4.6512,4.6524,4.6511,4.6542,4.651,4.6552,4.6524,4.6536,4.6537,4.654,4.6542,4.6507,4.6563,4.6655,4.6665,4.6544,4.6543,4.6542,0,4.6407,4.6444,4.6483,4.649,4.6502,4.652,4.6525,4.6534,4.6547,4.6563,4.6571,4.659,4.6601,4.6615,4.6608,4.6585,4.6651,4.6618,4.665,4.665,4.6665,4.6665,4.6761,4.6672,4.6671,4.6671,4.6671,0,4.6482,4.6517,4.651,4.6534,4.6572,4.6562,4.66,4.6603,4.6611,4.6634,4.6616,4.6638,4.6627,4.6648,4.6642,4.6678,4.6682,4.6681,4.668,4.6684,4.6684,4.6691,4.6687,4.6674,4.6673,4.6673,4.6672,0,4.6556,4.6553,4.6594,4.6601,4.6604,4.6632,4.6637,4.6659,4.6658,4.6687,4.6693,4.6691,4.6714,4.6708,4.6734,4.673,4.6775,4.6767,4.6771,4.677,4.6802,4.68,4.6907,4.6921,4.6822,4.6823,4.6824,0,4.6605,4.6631,4.6642,4.6656,4.6663,4.6687,4.6701,4.6691,4.6706,4.672,4.674,4.6762,4.678,4.6818,4.6818,4.6837,4.683,4.6867,4.6833,4.6836,4.6831,4.683,4.6833,4.6874,4.6875,4.6876,4.6876,0,4.6691,4.6688,4.6709,4.6729,4.6746,4.6761,4.6774,4.6787,4.6779,4.6796,4.682,4.6834,4.686,4.6882,4.69,4.6904,4.6889,4.6887,4.6895,4.69,4.6902,4.6902,4.679,4.6885,4.6884,4.6883,4.6883,4.6882,4.6754,4.6777,4.6788,4.6812,4.6821,4.6834,4.6855,4.6856,4.6876,4.6898,4.689,4.6918,4.6928,4.695,4.6956,4.6977,4.6964,4.6976,4.6979,4.6982,4.6987,4.6898,4.698,4.698,4.698,4.698,4.698,0,4.684,4.6846,4.6868,4.6888,4.6906,4.6891,4.6904,4.6921,4.6946,4.6956,4.6974,4.7001,4.7023,4.7024,4.7044,4.706,4.7054,4.7066,4.7065,4.7066,4.6998,4.6989,4.7071,4.7071,4.7071,4.7071,4.7071,4.7071,4.6887,4.6925,4.6924,4.6965,4.6971,4.6999,4.7008,4.7019,4.7028,4.706,4.7078,4.7079,4.7085,4.7106,4.7124,4.7124,4.7132,4.7147,4.7144,4.708,4.7071,4.7063,4.7054,4.7149,4.7149,4.7211,4.7212,4.7212]}]]